Location: Borowce
(50.8255°N, 19.6209°E)
Time: 08:44:15
(UTC+00:00)

Cosmos 1867 - Pass Details

Date: 19 May 2025
Orbit: 775 x 798 km, 65.0° (Epoch: 16 June)

Event Time Altitude Azimuth Distance (km) Brightness Sun altitude
Rises 19:48:17 0° 318° (NW) 3,314 9.2 -10.0°
Reaches altitude 10° 19:50:43 10° 318° (NW) 2,380 7.7 -10.2°
Maximum altitude 19:56:12 84° 232° (SW) 808 3.6 -10.8°
Enters shadow 20:00:45 15° 145° (SE) 2,023 5.0 -11.2°
